When you browse on this site, cookies collect data to enhance your experience and personalize the content and advertising you see.
Visit our Privacy Policy to learn more. By continuing to use the site, you agree to this use of cookies and data.
  • En España
  • Lista de países
  • Para 7 días
  • Temperatura del agua
  • Mapa Satelital
  • El tiempo en el mapa
  • Informadores
  • user-avatar
    Iniciar sesión

    Tiempo cada hora Aktau

    Hoy, 17 Junio, Lunes

    Tiempo Temperatura Precipitaciones Viento Presión Humedad
    00:00 +29°C° 0 mm 4 mps 754 mmHg 21%
    01:00 +28°C° 0 mm 4 mps 754 mmHg 23%
    02:00 +28°C° 0 mm 3 mps 753 mmHg 25%
    03:00 +27°C° 0 mm 3 mps 753 mmHg 26%
    04:00 +28°C° 0 mm 3 mps 753 mmHg 23%
    05:00 +29°C° 0 mm 3 mps 753 mmHg 20%
    06:00 +30°C° 0 mm 3 mps 753 mmHg 17%
    07:00 +32°C° 0 mm 2 mps 753 mmHg 15%
    08:00 +34°C° 0 mm 2 mps 753 mmHg 13%
    09:00 +35°C° 0 mm 1 mps 753 mmHg 11%
    10:00 +37°C° 0 mm 2 mps 753 mmHg 11%
    11:00 +37°C° 0 mm 2 mps 753 mmHg 11%
    12:00 +38°C° 0 mm 3 mps 753 mmHg 11%
    13:00 +38°C° 0 mm 4 mps 753 mmHg 11%
    14:00 +39°C° 0 mm 5 mps 753 mmHg 11%
    15:00 +39°C° 0 mm 6 mps 753 mmHg 12%
    16:00 +39°C° 0 mm 6 mps 753 mmHg 13%
    17:00 +39°C° 0 mm 6 mps 753 mmHg 14%
    18:00 +38°C° 0 mm 7 mps 753 mmHg 15%
    19:00 +36°C° 0 mm 7 mps 753 mmHg 17%
    20:00 +35°C° 0 mm 8 mps 753 mmHg 19%
    21:00 +33°C° 0 mm 8 mps 753 mmHg 21%
    22:00 +33°C° 0 mm 8 mps 753 mmHg 22%
    23:00 +32°C° 0 mm 7 mps 753 mmHg 24%

    Mañana, 18 Junio, Martes

    Tiempo Temperatura Precipitaciones Viento Presión Humedad
    00:00 +32°C° 0 mm 7 mps 753 mmHg 25%
    01:00 +30°C° 0 mm 6 mps 753 mmHg 27%
    02:00 +29°C° 0 mm 6 mps 753 mmHg 30%
    03:00 +29°C° 0 mm 5 mps 753 mmHg 32%
    04:00 +29°C° 0 mm 5 mps 754 mmHg 30%
    05:00 +30°C° 0 mm 6 mps 754 mmHg 29%
    06:00 +30°C° 0 mm 6 mps 754 mmHg 27%
    07:00 +33°C° 0 mm 6 mps 754 mmHg 24%
    08:00 +35°C° 0 mm 5 mps 755 mmHg 21%
    09:00 +37°C° 0 mm 5 mps 755 mmHg 18%
    10:00 +37°C° 0 mm 5 mps 755 mmHg 17%
    11:00 +39°C° 0 mm 5 mps 755 mmHg 16%
    12:00 +39°C° 0 mm 5 mps 755 mmHg 16%
    13:00 +39°C° 0 mm 5 mps 755 mmHg 15%
    14:00 +40°C° 0 mm 6 mps 754 mmHg 15%
    15:00 +40°C° 0 mm 6 mps 754 mmHg 14%
    16:00 +39°C° 0 mm 6 mps 754 mmHg 15%
    17:00 +39°C° 0 mm 6 mps 754 mmHg 15%
    18:00 +39°C° 0 mm 6 mps 754 mmHg 15%
    19:00 +36°C° 0 mm 7 mps 754 mmHg 17%
    20:00 +34°C° 0 mm 8 mps 754 mmHg 19%
    21:00 +32°C° 0 mm 8 mps 755 mmHg 22%
    22:00 +31°C° 0 mm 8 mps 754 mmHg 23%
    23:00 +30°C° 0 mm 7 mps 754 mmHg 24%

    Pasado mañana, 19 Junio, Miércoles

    Tiempo Temperatura Precipitaciones Viento Presión Humedad
    00:00 +29°C° 0 mm 6 mps 754 mmHg 25%
    01:00 +28°C° 0 mm 6 mps 754 mmHg 25%
    02:00 +28°C° 0 mm 5 mps 754 mmHg 25%
    03:00 +27°C° 0 mm 5 mps 754 mmHg 25%
    04:00 +28°C° 0 mm 5 mps 755 mmHg 23%
    05:00 +29°C° 0 mm 5 mps 755 mmHg 21%
    06:00 +30°C° 0 mm 5 mps 755 mmHg 18%
    07:00 +32°C° 0 mm 4 mps 755 mmHg 18%
    08:00 +34°C° 0 mm 3 mps 755 mmHg 17%
    09:00 +36°C° 0 mm 3 mps 755 mmHg 16%
    10:00 +36°C° 0 mm 3 mps 755 mmHg 15%
    11:00 +37°C° 0 mm 3 mps 755 mmHg 14%
    12:00 +38°C° 0 mm 3 mps 755 mmHg 13%
    13:00 +38°C° 0 mm 3 mps 755 mmHg 13%
    14:00 +38°C° 0 mm 4 mps 754 mmHg 13%
    15:00 +39°C° 0 mm 5 mps 754 mmHg 12%
    16:00 +39°C° 0 mm 6 mps 754 mmHg 12%
    17:00 +38°C° 0 mm 6 mps 754 mmHg 13%
    18:00 +38°C° 0 mm 7 mps 754 mmHg 13%
    19:00 +35°C° 0 mm 7 mps 754 mmHg 15%
    20:00 +34°C° 0 mm 8 mps 754 mmHg 16%
    21:00 +33°C° 0 mm 8 mps 754 mmHg 17%
    22:00 +33°C° 0 mm 7 mps 754 mmHg 18%
    23:00 +32°C° 0 mm 7 mps 754 mmHg 19%

    20 Junio, Jueves

    Tiempo Temperatura Precipitaciones Viento Presión Humedad
    00:00 +32°C° 0 mm 6 mps 754 mmHg 20%
    01:00 +32°C° 0 mm 5 mps 754 mmHg 19%
    02:00 +32°C° 0 mm 4 mps 753 mmHg 18%
    03:00 +31°C° 0 mm 3 mps 753 mmHg 16%
    04:00 +31°C° 0 mm 3 mps 754 mmHg 16%
    05:00 +31°C° 0 mm 3 mps 754 mmHg 15%
    06:00 +33°C° 0 mm 3 mps 754 mmHg 15%
    07:00 +34°C° 0 mm 3 mps 754 mmHg 15%
    08:00 +35°C° 0 mm 3 mps 754 mmHg 14%
    09:00 +36°C° 0 mm 4 mps 754 mmHg 14%
    10:00 +36°C° 0 mm 4 mps 754 mmHg 14%
    11:00 +37°C° 0 mm 4 mps 754 mmHg 14%
    12:00 +37°C° 0 mm 4 mps 754 mmHg 14%
    13:00 +37°C° 0 mm 4 mps 754 mmHg 14%
    14:00 +37°C° 0 mm 5 mps 754 mmHg 14%
    15:00 +39°C° 0 mm 5 mps 753 mmHg 14%
    16:00 +38°C° 0 mm 6 mps 753 mmHg 15%
    17:00 +38°C° 0 mm 7 mps 753 mmHg 16%
    18:00 +37°C° 0 mm 8 mps 753 mmHg 16%
    19:00 +35°C° 0 mm 8 mps 753 mmHg 17%
    20:00 +35°C° 0 mm 9 mps 754 mmHg 18%
    21:00 +34°C° 0 mm 9 mps 754 mmHg 19%
    22:00 +34°C° 0 mm 8 mps 754 mmHg 20%
    23:00 +34°C° 0 mm 7 mps 754 mmHg 21%

    21 Junio, Viernes

    Tiempo Temperatura Precipitaciones Viento Presión Humedad
    00:00 +33°C° 0 mm 6 mps 754 mmHg 22%
    01:00 +33°C° 0 mm 6 mps 754 mmHg 23%
    02:00 +33°C° 0 mm 6 mps 754 mmHg 23%
    03:00 +33°C° 0 mm 6 mps 754 mmHg 24%
    04:00 +33°C° 0 mm 6 mps 754 mmHg 25%
    05:00 +32°C° 0 mm 7 mps 754 mmHg 27%
    06:00 +32°C° 0 mm 8 mps 755 mmHg 28%
    07:00 +33°C° 0 mm 7 mps 755 mmHg 27%
    08:00 +34°C° 0 mm 7 mps 755 mmHg 25%
    09:00 +34°C° 0 mm 7 mps 755 mmHg 24%
    10:00 +35°C° 0 mm 7 mps 755 mmHg 22%
    11:00 +36°C° 0 mm 7 mps 755 mmHg 19%
    12:00 +36°C° 0 mm 7 mps 755 mmHg 17%
    13:00 +36°C° 0 mm 7 mps 755 mmHg 19%
    14:00 +36°C° 0 mm 7 mps 755 mmHg 21%
    15:00 +35°C° 0 mm 7 mps 755 mmHg 22%
    16:00 +35°C° 0 mm 7 mps 756 mmHg 23%
    17:00 +34°C° 0 mm 7 mps 756 mmHg 23%
    18:00 +34°C° 0 mm 6 mps 756 mmHg 24%
    19:00 +33°C° 0 mm 6 mps 756 mmHg 26%
    20:00 +33°C° 0 mm 7 mps 756 mmHg 27%
    21:00 +32°C° 0 mm 7 mps 756 mmHg 29%
    22:00 +32°C° 0 mm 7 mps 756 mmHg 33%
    23:00 +30°C° 0 mm 6 mps 757 mmHg 36%

    22 Junio, Sábado

    Tiempo Temperatura Precipitaciones Viento Presión Humedad
    00:00 +30°C° 0 mm 6 mps 757 mmHg 40%
    01:00 +29°C° 0 mm 5 mps 757 mmHg 41%
    02:00 +29°C° 0 mm 4 mps 757 mmHg 42%
    03:00 +29°C° 0 mm 3 mps 757 mmHg 44%
    04:00 +29°C° 0 mm 3 mps 757 mmHg 42%
    05:00 +29°C° 0 mm 3 mps 758 mmHg 40%
    06:00 +29°C° 0 mm 3 mps 758 mmHg 38%
    07:00 +30°C° 0 mm 3 mps 758 mmHg 36%
    08:00 +31°C° 0 mm 3 mps 758 mmHg 33%
    09:00 +32°C° 0 mm 2 mps 759 mmHg 30%
    10:00 +34°C° 0 mm 2 mps 759 mmHg 28%
    11:00 +35°C° 0 mm 3 mps 759 mmHg 25%
    12:00 +36°C° 0 mm 3 mps 759 mmHg 23%
    13:00 +36°C° 0 mm 3 mps 758 mmHg 22%
    14:00 +36°C° 0 mm 4 mps 758 mmHg 22%
    15:00 +37°C° 0 mm 5 mps 758 mmHg 21%
    16:00 +36°C° 0 mm 5 mps 758 mmHg 22%
    17:00 +36°C° 0 mm 5 mps 758 mmHg 23%
    18:00 +35°C° 0 mm 5 mps 758 mmHg 24%
    19:00 +34°C° 0 mm 5 mps 758 mmHg 27%
    20:00 +33°C° 0 mm 4 mps 759 mmHg 30%
    21:00 +32°C° 0 mm 4 mps 759 mmHg 33%
    22:00 +32°C° 0 mm 4 mps 759 mmHg 31%
    23:00 +31°C° 0 mm 3 mps 758 mmHg 30%
    Mostrar más